Regional Weather Roundup
Issued by NWS

Home | Current Version | Previous Version | Text Only | Print | Product List | Glossary Off
Versions: 1 2 3 4 5 6 7 8 9 10 11 12 13 14 15 16 17 18 19 20 21 22 23 24 25 26 27 28 29 30 31 32 33 34 35 36 37 38 39 40 41 42 43 44 45 46 47 48 49 50

000
ASUS43 KBIS 020210
RWRND

NORTH DAKOTA REGIONAL WEATHER ROUNDUP
NATIONAL WEATHER SERVICE BISMARCK ND
900 PM CDT WED OCT 01 2014

NOTE: "FAIR" INDICATES FEW OR NO CLOUDS BELOW 12,000 FEET WITH NO
SIGNIFICANT WEATHER AND/OR OBSTRUCTIONS TO VISIBILITY.


NDZ001>003-009>011-017-020300-
NORTHWEST NORTH DAKOTA

CITY           SKY/WX    TMP DP  RH WIND       PRES   REMARKS
WILLISTON      MOCLDY    51  44  77 SW8       29.83R
MINOT          PTCLDY    51  44  77 SW8       29.79R
MINOT AFB      CLEAR     49  48  97 W9        29.78R
$$

NDZ018>021-031>035-040>046-020300-
SOUTHWEST NORTH DAKOTA

CITY           SKY/WX    TMP DP  RH WIND       PRES   REMARKS
BISMARCK       CLOUDY    57  49  74 W8        29.84R
DICKINSON      LGT RAIN  50  46  86 W7        29.87R
GARRISON         N/A     51  45  79 W8        29.82R
HETTINGER ARPT CLOUDY    50  43  77 W8        29.90R
$$

NDZ004>008-012>016-024-026-027-054-020300-
NORTHEAST NORTH DAKOTA

CITY           SKY/WX    TMP DP  RH WIND       PRES   REMARKS
GRAND FORKS    CLOUDY    60  51  72 W5        29.71R
GRND FRKS AFB  CLOUDY    60  52  76 W8        29.73R
DEVILS LAKE    CLOUDY    55  45  67 W17       29.73R
$$

NDZ022-023-025-028>030-036>039-047>053-020300-
SOUTHEAST NORTH DAKOTA

CITY           SKY/WX    TMP DP  RH WIND       PRES   REMARKS
FARGO          CLOUDY    62  51  67 SW8       29.76R
JAMESTOWN      CLOUDY    57  50  77 W8        29.79R
$$




USA.gov is the U.S. government's official web portal to all federal, state and local government web resources and services.